When you browse on this site, cookies collect data to enhance your experience and personalize the content and advertising you see.
Visit our Privacy Policy to learn more. By continuing to use the site, you agree to this use of cookies and data.
  • In United Kingdom
  • List of Countries
  • For 7 days
  • Water Temperature
  • Satellite Maps
  • Weather Map
  • Weather Widgets
  • user-avatar
    Login

    Hourly Weather Mayrhofen

    Today, 21 February, Thursday

    Time Temperature Precipitation Wind Pressure Humidity
    00:00 -3°C° 0 mm 1 mps 620 mmHg 86%
    01:00 -3°C° 0 mm 1 mps 620 mmHg 84%
    02:00 -3°C° 0 mm 1 mps 620 mmHg 83%
    03:00 -3°C° 0 mm 1 mps 620 mmHg 82%
    04:00 -3°C° 0 mm 1 mps 620 mmHg 80%
    05:00 -3°C° 0 mm 1 mps 620 mmHg 80%
    06:00 -3°C° 0 mm 1 mps 620 mmHg 80%
    07:00 -4°C° 0 mm 2 mps 620 mmHg 80%
    08:00 -3°C° 0 mm 2 mps 621 mmHg 82%
    09:00 +1°C° 0 mm 1 mps 621 mmHg 84%
    10:00 +2°C° 0 mm 1 mps 622 mmHg 85%
    11:00 +3°C° 0 mm 1 mps 622 mmHg 87%
    12:00 +3°C° 0 mm 1 mps 622 mmHg 88%
    13:00 +3°C° 0 mm 2 mps 622 mmHg 88%
    14:00 +3°C° 0 mm 2 mps 622 mmHg 89%
    15:00 +2°C° 0 mm 2 mps 622 mmHg 90%
    16:00 +2°C° 0 mm 2 mps 621 mmHg 91%
    17:00 +1°C° 0 mm 2 mps 621 mmHg 92%
    18:00 -2°C° 0 mm 2 mps 621 mmHg 92%
    19:00 -3°C° 0 mm 2 mps 621 mmHg 92%
    20:00 -4°C° 0 mm 2 mps 621 mmHg 90%
    21:00 -4°C° 0 mm 2 mps 621 mmHg 89%
    22:00 -5°C° 0 mm 2 mps 621 mmHg 87%
    23:00 -5°C° 0 mm 2 mps 621 mmHg 86%

    Tomorrow, 22 February, Friday

    Time Temperature Precipitation Wind Pressure Humidity
    00:00 -4°C° 0 mm 2 mps 621 mmHg 85%
    01:00 -4°C° 0 mm 2 mps 621 mmHg 83%
    02:00 -4°C° 0 mm 2 mps 621 mmHg 84%
    03:00 -4°C° 0 mm 2 mps 621 mmHg 85%
    04:00 -4°C° 0 mm 2 mps 621 mmHg 86%
    05:00 -4°C° 0.2 mm 2 mps 621 mmHg 88%
    06:00 -4°C° 0.2 mm 3 mps 621 mmHg 89%
    07:00 -4°C° 0.2 mm 3 mps 621 mmHg 91%
    08:00 -4°C° 0.5 mm 3 mps 622 mmHg 91%
    09:00 -2°C° 0.5 mm 3 mps 622 mmHg 92%
    10:00 -1°C° 0.5 mm 3 mps 622 mmHg 92%
    11:00 -1°C° 0.4 mm 3 mps 622 mmHg 93%
    12:00 -1°C° 0.4 mm 3 mps 622 mmHg 93%
    13:00 -1°C° 0.4 mm 3 mps 622 mmHg 94%
    14:00 -1°C° 0.1 mm 3 mps 622 mmHg 94%
    15:00 -1°C° 0.1 mm 3 mps 622 mmHg 93%
    16:00 -1°C° 0.1 mm 3 mps 622 mmHg 93%
    17:00 -2°C° 0 mm 3 mps 622 mmHg 94%
    18:00 -3°C° 0 mm 2 mps 623 mmHg 95%
    19:00 -4°C° 0 mm 2 mps 623 mmHg 95%
    20:00 -4°C° 0 mm 2 mps 623 mmHg 95%
    21:00 -5°C° 0 mm 2 mps 623 mmHg 94%
    22:00 -5°C° 0 mm 2 mps 623 mmHg 93%
    23:00 -6°C° 0 mm 2 mps 623 mmHg 92%

    Day after tomorrow, 23 February, Saturday

    Time Temperature Precipitation Wind Pressure Humidity
    00:00 -6°C° 0 mm 2 mps 623 mmHg 90%
    01:00 -6°C° 0 mm 2 mps 623 mmHg 88%
    02:00 -7°C° 0 mm 2 mps 623 mmHg 85%
    03:00 -7°C° 0 mm 2 mps 623 mmHg 81%
    04:00 -7°C° 0 mm 2 mps 623 mmHg 77%
    05:00 -7°C° 0 mm 2 mps 623 mmHg 71%
    06:00 -7°C° 0 mm 2 mps 623 mmHg 66%
    07:00 -7°C° 0 mm 2 mps 623 mmHg 60%
    08:00 -5°C° 0 mm 2 mps 623 mmHg 60%
    09:00 -3°C° 0 mm 2 mps 624 mmHg 59%
    10:00 -1°C° 0 mm 2 mps 625 mmHg 58%
    11:00 -1°C° 0 mm 2 mps 625 mmHg 60%
    12:00 -1°C° 0 mm 3 mps 625 mmHg 62%
    13:00 0°C° 0 mm 3 mps 625 mmHg 64%
    14:00 0°C° 0 mm 3 mps 625 mmHg 65%
    15:00 +1°C° 0 mm 2 mps 625 mmHg 66%
    16:00 -1°C° 0 mm 2 mps 624 mmHg 66%
    17:00 -2°C° 0 mm 2 mps 624 mmHg 65%
    18:00 -4°C° 0 mm 2 mps 624 mmHg 64%
    19:00 -5°C° 0 mm 2 mps 624 mmHg 64%
    20:00 -5°C° 0 mm 2 mps 624 mmHg 60%
    21:00 -5°C° 0 mm 2 mps 624 mmHg 56%
    22:00 -3°C° 0 mm 1 mps 624 mmHg 52%
    23:00 -3°C° 0 mm 1 mps 624 mmHg 50%

    24 February, Sunday

    Time Temperature Precipitation Wind Pressure Humidity
    00:00 -3°C° 0 mm 1 mps 624 mmHg 49%
    01:00 -3°C° 0 mm 1 mps 624 mmHg 48%
    02:00 -3°C° 0 mm 1 mps 624 mmHg 48%
    03:00 -3°C° 0 mm 1 mps 624 mmHg 48%
    04:00 -3°C° 0 mm 1 mps 624 mmHg 48%
    05:00 -3°C° 0 mm 1 mps 624 mmHg 49%
    06:00 -5°C° 0 mm 2 mps 624 mmHg 50%
    07:00 -5°C° 0 mm 2 mps 624 mmHg 51%
    08:00 -3°C° 0 mm 2 mps 625 mmHg 54%
    09:00 -1°C° 0 mm 2 mps 626 mmHg 58%
    10:00 +2°C° 0 mm 2 mps 626 mmHg 61%
    11:00 +2°C° 0 mm 2 mps 626 mmHg 65%
    12:00 +3°C° 0 mm 2 mps 626 mmHg 68%
    13:00 +3°C° 0 mm 2 mps 626 mmHg 71%
    14:00 +3°C° 0 mm 2 mps 626 mmHg 73%
    15:00 +3°C° 0 mm 2 mps 626 mmHg 74%
    16:00 +2°C° 0 mm 2 mps 625 mmHg 75%
    17:00 +1°C° 0 mm 2 mps 625 mmHg 77%
    18:00 -2°C° 0 mm 2 mps 625 mmHg 78%
    19:00 -3°C° 0 mm 2 mps 625 mmHg 79%
    20:00 -3°C° 0 mm 2 mps 625 mmHg 78%
    21:00 -3°C° 0 mm 2 mps 625 mmHg 77%
    22:00 -3°C° 0 mm 2 mps 625 mmHg 76%
    23:00 -4°C° 0 mm 2 mps 626 mmHg 75%

    25 February, Monday

    Time Temperature Precipitation Wind Pressure Humidity
    00:00 -4°C° 0 mm 2 mps 626 mmHg 75%
    01:00 -4°C° 0 mm 2 mps 626 mmHg 74%
    02:00 -4°C° 0 mm 2 mps 625 mmHg 74%
    03:00 -4°C° 0 mm 2 mps 625 mmHg 75%
    04:00 -4°C° 0 mm 2 mps 625 mmHg 75%
    05:00 -2°C° 0 mm 1 mps 625 mmHg 76%
    06:00 -2°C° 0 mm 1 mps 625 mmHg 77%
    07:00 -2°C° 0 mm 1 mps 626 mmHg 77%
    08:00 -1°C° 0 mm 1 mps 626 mmHg 75%
    09:00 +1°C° 0 mm 1 mps 627 mmHg 74%
    10:00 +3°C° 0 mm 1 mps 628 mmHg 72%
    11:00 +4°C° 0 mm 1 mps 628 mmHg 72%
    12:00 +5°C° 0 mm 1 mps 628 mmHg 71%
    13:00 +6°C° 0 mm 1 mps 628 mmHg 71%
    14:00 +6°C° 0 mm 1 mps 627 mmHg 73%
    15:00 +5°C° 0 mm 1 mps 627 mmHg 75%
    16:00 +5°C° 0 mm 1 mps 627 mmHg 77%
    17:00 +4°C° 0 mm 1 mps 626 mmHg 78%
    18:00 +2°C° 0 mm 1 mps 626 mmHg 79%
    19:00 +1°C° 0 mm 1 mps 626 mmHg 80%
    20:00 +1°C° 0 mm 1 mps 626 mmHg 76%
    21:00 0°C° 0 mm 1 mps 626 mmHg 73%
    22:00 0°C° 0 mm 1 mps 626 mmHg 70%
    23:00 0°C° 0 mm 1 mps 626 mmHg 68%

    26 February, Tuesday

    Time Temperature Precipitation Wind Pressure Humidity
    00:00 0°C° 0 mm 1 mps 626 mmHg 65%
    01:00 0°C° 0 mm 1 mps 625 mmHg 63%
    02:00 0°C° 0 mm 1 mps 625 mmHg 62%
    03:00 0°C° 0 mm 1 mps 625 mmHg 62%
    04:00 0°C° 0 mm 1 mps 625 mmHg 61%
    05:00 0°C° 0 mm 1 mps 625 mmHg 60%
    06:00 -1°C° 0 mm 1 mps 624 mmHg 59%
    07:00 -3°C° 0 mm 2 mps 624 mmHg 58%
    08:00 -1°C° 0 mm 2 mps 625 mmHg 57%
    09:00 +2°C° 0 mm 2 mps 625 mmHg 56%
    10:00 +5°C° 0 mm 1 mps 626 mmHg 55%
    11:00 +4°C° 0 mm 2 mps 626 mmHg 57%
    12:00 +5°C° 0 mm 2 mps 626 mmHg 59%
    13:00 +5°C° 0 mm 2 mps 625 mmHg 60%
    14:00 +5°C° 0 mm 2 mps 625 mmHg 63%
    15:00 +5°C° 0 mm 2 mps 625 mmHg 66%
    16:00 +4°C° 0 mm 2 mps 624 mmHg 69%
    17:00 +3°C° 0 mm 2 mps 624 mmHg 70%
    18:00 +1°C° 0 mm 2 mps 623 mmHg 71%
    19:00 +1°C° 0 mm 1 mps 623 mmHg 72%
    20:00 +1°C° 0 mm 1 mps 623 mmHg 68%
    21:00 +1°C° 0 mm 1 mps 623 mmHg 64%
    22:00 +1°C° 0 mm 1 mps 623 mmHg 61%
    23:00 +1°C° 0 mm 1 mps 623 mmHg 59%
    Show more